Regional Weather Roundup
Issued by NWS

Home | Current Version | Previous Version | Graphics & Text | Print | Product List | Glossary On
Versions: 1 2 3 4 5 6 7 8 9 10 11 12 13 14 15 16 17 18 19 20 21 22 23 24 25 26 27 28 29 30 31 32 33 34 35 36 37 38 39 40 41 42 43 44 45 46 47 48 49 50
000
ASUS45 KTFX 260910
RWRMT
MONTANA REGIONAL WEATHER ROUNDUP
NATIONAL WEATHER SERVICE GREAT FALLS MT
300 AM MDT TUE JUL 26 2016

NOTE: "FAIR" INDICATES FEW OR NO CLOUDS BELOW 12000 FEET WITH NO
SIGNIFICANT WEATHER AND/OR OBSTRUCTIONS TO VISIBILITY.

MTZ001>007-043-261000-
WEST OF THE DIVIDE

CITY           SKY/WX    TMP DP  RH WIND       PRES   REMARKS
KALISPELL      CLEAR     57  54  89 N7        30.02S
MISSOULA       CLEAR     60  46  59 CALM      30.07R
BUTTE          CLEAR     50  42  74 SE3       30.20S
MULLAN PASS    CLEAR     65  41  41 CALM      30.21F
ANACONDA         N/A     52  43  71 CALM      30.17R
DEER LODGE       N/A     52  48  87 CALM      30.18S
EUREKA           N/A     61  52  72 CALM      30.04S
HAMILTON         N/A     61  39  44 CALM      30.09S
LIBBY            N/A     59  48  67 CALM      30.03S
PLAINS           N/A     60  47  62 MISG      30.03R
RONAN            N/A     56  50  80 CALM      30.07S
$$

MTZ008-052>055-261000-
SOUTHWEST MONTANA

CITY           SKY/WX    TMP DP  RH WIND       PRES   REMARKS
BOZEMAN        CLEAR     65  44  46 SW6       30.12F
DILLON         CLOUDY    60  41  49 S5        30.16S
W YELLOWSTONE  CLOUDY    45  32  61 SW5       30.27S
ENNIS          CLEAR     57  37  47 SE5       30.22S
THREE FORKS      N/A     55  26  32 CALM      30.10F
TWIN BRIDGES     N/A     56  40  55 S3        30.13S
$$

MTZ009-010-012-014-046-048-049-054-261000-
EAST SLOPES AND CENTRAL MONTANA

CITY           SKY/WX    TMP DP  RH WIND       PRES   REMARKS
CUT BANK       PTCLDY    58  51  78 N5        30.10F
GREAT FALLS    PTCLDY    64  52  64 NE7       30.08S
MALMSTROM AFB  PTCLDY    61  49  64 SE3       30.08S
HELENA         CLEAR     59  50  72 W5        30.12R
CHOTEAU          N/A     61  55  82 CALM      30.11S
CONRAD           N/A     60  57  89 CALM      30.10F
$$

MTZ011-013-016-021-045-047-050-051-261000-
NORTH CENTRAL MONTANA

CITY           SKY/WX    TMP DP  RH WIND       PRES   REMARKS
HAVRE          MOCLDY    66  58  75 E9        30.04R
LEWISTOWN      CLOUDY    66  47  50 S12       30.07F
N BAR RANCH      N/A     66  45  45 W10G17    30.10F
CHINOOK          N/A     64  61  88 CALM      30.05R
$$

MTZ017>020-022>027-061-062-261000-
NORTHEAST MONTANA

CITY           SKY/WX    TMP DP  RH WIND       PRES   REMARKS
GLASGOW        PTCLDY    67  60  78 SE7       30.04R
JORDAN           N/A     70  60  70 S3        30.05F
SIDNEY         CLOUDY    64  60  87 NW6       30.00S
WOLF POINT     PTCLDY    67  62  84 E7        30.03R
PLENTYWOOD       N/A     64  61  88 NE12      30.04S
POPLAR           N/A     66  63  88 N9        30.03R
SCOBEY           N/A     57  49  75 CALM      30.05S
$$

MTZ028>42-056>058-261000-
SOUTHCENTRAL AND SOUTHEAST MONTANA

CITY           SKY/WX    TMP DP  RH WIND       PRES   REMARKS
BAKER          PTCLDY    68  61  78 E12       30.02R
BILLINGS       CLOUDY    68  52  56 S9        30.09S
LIVINGSTON     PTCLDY    65  47  52 E6        30.15S
MILES CITY     LGT RAIN  73  57  57 NW15      30.06R
FORSYTH          N/A     72  57  60 E3        30.05R
LAUREL           N/A     64  47  54 CALM      30.09S
ROUNDUP          N/A     73  45  36 CALM      29.95F
$$

REGIONAL REPORTS...DAKOTAS

CITY           SKY/WX    TMP DP  RH WIND       PRES   REMARKS
WILLISTON      CLEAR     64  58  80 N6        30.02R
MINOT          CLEAR     65  61  87 CALM      30.00R
DICKINSON      CLEAR     63  62  97 NE7       30.00R
BEACH            N/A     66  66 100 SE3       30.05S
CROSBY           N/A     59  59 100 N5        30.06S FOG
WATFORD CITY     N/A    N/A N/A N/A MISG        N/A
BISMARCK       CLEAR     71  69  93 NE8       29.95S
GRAND FORKS    CLEAR     66  63  90 N6        29.92R
FARGO          MOCLDY    74  62  66 SW9       29.91F
BUFFALO SD       N/A     68  54  60 NE10      29.94S
RAPID CITY     CLEAR     67  59  75 S7        30.00F
$$

REGIONAL REPORTS...WYOMING/IDAHO/WASHINGTON

CITY           SKY/WX    TMP DP  RH WIND       PRES   REMARKS
GILLETTE       LGT RAIN  72  60  66 SE12      30.02S
SHERIDAN       CLEAR     74  46  36 NW33G41   30.07R
BUFFALO WY     CLEAR     74  41  30 NW24G36   30.10S
CODY           CLEAR     68  39  34 NW9       30.19S
YELLOWSTONE LA   N/A     44  34  67 NW3       30.35S
IDAHO FALLS    CLEAR     53  41  63 NW7       30.10R
SALMON         CLEAR     55  45  67 CALM      30.09R
BOISE          CLEAR     74  38  27 S5        29.94R
SPOKANE        PTCLDY    70  48  45 NE3       29.98S
$$

REGIONAL REPORTS...ALBERTA

CITY           SKY/WX    TMP DP  RH WIND       PRES   REMARKS
EDMONTON       CLEAR     61  54  77 S6        30.03S
LETHBRIDGE     MOCLDY    61  59  94 S15G30    30.06F
MEDICINE HAT   MOCLDY    66  57  72 E7        30.04R
WATERTON GATE    N/A     55  52  88 E1          N/A
MILK RIVER       N/A     64  57  77 NE7         N/A
$$

REGIONAL REPORTS...SASKATCHEWAN

CITY           SKY/WX    TMP DP  RH WIND       PRES   REMARKS
SWIFT CURRENT  CLEAR     59  55  88 E8        30.09F
REGINA         CLEAR     55  54  94 NW2       30.08F
SASKATOON      CLEAR     48  48 100 N5        30.10R
CYPRESS HILLS    N/A     59  54  82 SE6         N/A
VAL MARIE        N/A     59  57  94 NE5         N/A
ROCKGLEN         N/A     59  55  88 NE5         N/A
ASSINIBOIA       N/A     57  54  88 S5          N/A
$$



USA.gov is the U.S. government's official web portal to all federal, state and local government web resources and services.